This demonstration page uses our WeatherBlox Daily Observations layout. Learn more.

Left ArrowRight Arrow

Hourly Observations for June 20, 2017

Temp ( °F °C ) Dew Point ( °F °C ) Humidity (%) Winds ( mph kmh ) Pressure ( in mb ) Visibility ( mi km ) Precip ( " mm )
12:53 am 00:53 Cloudy 75 23.9 73 22.8 94 94 S 3 6 30.04 1017 10 16 0.00 0.00
1:53 am 01:53 Partly Cloudy 75 23.9 72 22.2 90 90 Calm 30.03 1017 10 16 0.00 0.00
2:53 am 02:53 Cloudy 75 23.9 73 22.8 94 94 Calm 30.02 1017 10 16 0.00 0.00
3:46 am 03:46 Cloudy 74 23.3 73 22.8 97 97 W 6 9 30.00 1016 10 16 0.00 0.00
3:53 am 03:53 Cloudy 74 23.3 73 22.8 97 97 SW 5 7 30.01 1016 10 16 0.00 0.00
4:53 am 04:53 Mostly Clear with Light Rain 73 22.8 73 22.8 100 100 SW 6 9 30.00 1016 10 16 0.01 0.25
5:53 am 05:53 Partly Cloudy 73 22.8 73 22.8 100 100 SSW 3 6 30.00 1016 10 16 0.01 0.25
6:53 am 06:53 Mostly Cloudy 73 22.8 73 22.8 100 100 WSW 3 6 30.02 1017 10 16 0.00 0.00
7:19 am 07:19 Mostly Cloudy 73 22.8 73 22.8 100 100 Calm 30.03 1017 10 16 0.00 0.00
7:53 am 07:53 Cloudy 73 22.8 73 22.8 100 100 Calm 30.04 1017 10 16 0.00 0.00
8:53 am 08:53 Mostly Cloudy 74 23.3 73 22.8 97 97 SW 3 6 30.05 1018 10 16 0.00 0.00
9:53 am 09:53 Cloudy 76 24.4 74 23.3 94 94 Calm 30.05 1018 10 16 0.00 0.00
10:53 am 10:53 Cloudy 78 25.6 73 22.8 85 85 Calm 30.05 1018 10 16 0.00 0.00
11:09 am 11:09 Mostly Cloudy 79 26.1 72 22.2 79 79 Calm 30.06 1018 10 16 0.00 0.00
11:53 am 11:53 Mostly Cloudy 79 26.1 72 22.2 79 79 N 3 6 30.05 1018 10 16 0.00 0.00
12:22 pm 12:22 Cloudy with Light Rain 77 25 72 22.2 85 85 SE 5 7 30.03 1017 10 16 0.00 0.03
12:49 pm 12:49 Cloudy with Heavy Rain 75 24 73 23 94 94 SSE 8 13 30.03 1017 3 5 0.08 2.03
12:53 pm 12:53 Cloudy with Heavy Rain 75 23.9 74 23.3 96 96 SSE 7 11 30.04 1017 2 3 0.13 3.30
12:56 pm 12:56 Cloudy with Heavy Rain 75 23.9 74 23.3 96 96 SSE 6 9 30.03 1017 5 8 0.00 0.03
1:53 pm 13:53 Cloudy with Light Rain 74 23.3 73 22.8 97 97 S 8 13 30.04 1017 5 8 0.35 8.89
2:00 pm 14:00 Cloudy with Thunderstorms 73 22.8 73 22.8 100 100 SSW 8 13 30.03 1017 4 6 0.01 0.25
2:15 pm 14:15 Cloudy with Heavy Rain 73 22.8 73 22.8 100 100 SW 12 19 30.03 1017 4 6 0.08 2.03
2:36 pm 14:36 Cloudy with Thunderstorms 73 22.8 72 22.2 96 96 VRB 7 11 30.03 1017 4 6 0.25 6.35
2:53 pm 14:53 Cloudy with Nearby Thunderstorms 73 22.8 73 22.8 100 100 SW 7 11 30.04 1017 4 6 0.26 6.60
3:00 pm 15:00 Cloudy with Rain 73 22.8 72 22.2 96 96 WSW 9 15 30.03 1017 3 5 0.02 0.51
3:53 pm 15:53 Cloudy with Heavy Rain 72 22.2 72 22.2 100 100 W 3 6 30.05 1018 2 3 0.47 11.94
4:00 pm 16:00 Cloudy with Rain 72 22.2 72 22.2 100 100 Calm 30.06 1018 3 5 0.02 0.51
4:53 pm 16:53 Cloudy with Light Rain 72 22.2 71 21.7 97 97 SW 6 9 30.05 1018 3 5 0.16 4.06
5:53 pm 17:53 Cloudy with Light Rain 72 22.2 72 22.2 100 100 Calm 30.02 1017 5 8 0.19 4.83
6:53 pm 18:53 Cloudy with Mist and Fog 73 22.8 73 22.8 100 100 S 5 7 30.02 1017 5 8 0.00 0.03
7:00 pm 19:00 Cloudy 73 22.8 73 22.8 100 100 S 7 11 30.03 1017 10 16 0.00 0.00
7:53 pm 19:53 Cloudy with Light Rain 73 22.8 73 22.8 100 100 SSW 5 7 30.04 1017 9 14 0.00 0.03
8:12 pm 20:12 Cloudy with Light Rain 72 22.2 72 22.2 100 100 SW 6 9 30.03 1017 9 14 0.01 0.25
8:23 pm 20:23 Cloudy with Light Rain 72 22.2 72 22.2 100 100 SSW 8 13 30.03 1017 7 11 0.01 0.25
8:53 pm 20:53 Mostly Cloudy 72 22.2 72 22.2 100 100 S 5 7 30.04 1017 10 16 0.01 0.25
9:37 pm 21:37 Cloudy 71 21.7 71 21.7 100 100 S 5 7 30.06 1018 10 16 0.00 0.00
9:53 pm 21:53 Cloudy 71 21.7 71 21.7 100 100 S 5 7 30.06 1018 10 16 0.00 0.00
10:14 pm 22:14 Cloudy 71 21.7 70 21.1 96 96 SSW 8 13 30.06 1018 10 16 0.00 0.00
10:26 pm 22:26 Cloudy with Light Rain 71 21.7 71 21.7 100 100 SSW 6 9 30.06 1018 10 16 0.00 0.03
10:53 pm 22:53 Cloudy with Light Rain 70 21.1 70 21.1 100 100 SSW 5 7 30.07 1018 4 6 0.02 0.51
11:53 pm 23:53 Cloudy with Light Rain 71 21.7 71 21.7 100 100 Calm 30.07 1018 5 8 0.02 0.51

Powered by AerisWeather